Philadelphia, PA

1:38 PM EDT on August 26, 2016 (GMT -0400)
Philadelphia International

Weather History for KPHL - October, 2013

Change the Weather History Date:

Friday, October 4, 2013

  Actual Average Record
Temperature  
Mean Temperature 76 °F 62 °F  
Max Temperature 86 °F 71 °F 88 °F (1941)
Min Temperature 65 °F 53 °F 34 °F (1974)
Degree Days  
Heating Degree Days 0 5  
Month to date heating degree days 0 17  
Since 1 July heating degree days 36 55  
Cooling Degree Days 11 2  
Month to date cooling degree days 31 8  
Year to date cooling degree days 1377 1286  
Growing Degree Days 25 (Base 50)    
Moisture  
Dew Point 63 °F    
Average Humidity 66    
Maximum Humidity 87    
Minimum Humidity 45    
Precipitation  
Precipitation 0.00 in 0.10 in 2.73 in (1877)
Month to date precipitation 0.00 0.44  
Year to date precipitation 45.50 32.24  
Snow  
Snow 0.00 in 0.00 in 0.00 in (1870)
Month to date snowfall 0.0 0.0  
Since 1 July snowfall 0.0 0.0  
Since 1 September snowfall 0.0 0.0  
Snow Depth 0.00 in    
Sea Level Pressure  
Sea Level Pressure 30.05 in    
Wind  
Wind Speed 5 mph (SW)    
Max Wind Speed 12 mph    
Max Gust Speed 16 mph    
Visibility 7 miles    
Events      
T = Trace of Precipitation, MM = Missing Value Source: NWS Daily Summary

Daily Weather History Graph

Daily Weather History Graph

Search for Another Location

Airport or City:

Trip Planner

Search our weather history database for the weather conditions in past years. The results will help you decide how hot, cold, wet, or windy it might be!

Date:

Astronomy

Oct. 04, 2013 Rise Set
Actual Time 7:00 AM EDT 6:38 PM EDT
Civil Twilight 6:33 AM EDT 7:05 PM EDT
Nautical Twilight 6:02 AM EDT 7:36 PM EDT
Astronomical Twilight 5:30 AM EDT 8:07 PM EDT
Moon 6:33 AM EDT (10/4) 6:19 PM EDT (10/4)
Length of Visible Light 12h 31m
Length of Day
11h 37m
Waning Crescent, 0% of the Moon is Illuminated
Oct 4
Waning Crescent
Oct 4
New
Oct 11
First Quarter
Oct 18
Full
Oct 26
Last Quarter

Hourly Weather History & Observations

Time (EDT) Temp. Heat Index Dew Point Humidity Pressure Visibility Wind Dir Wind Speed Gust Speed Precip Events Conditions
12:54 AM 68.0 °F - 64.0 °F 87% 30.07 in 10.0 mi Calm Calm - N/A   Mostly Cloudy
1:09 AM 68.0 °F - 64.4 °F 88% 30.06 in 8.0 mi Calm Calm - N/A   Scattered Clouds
1:15 AM 66.2 °F - 64.4 °F 94% 30.07 in 6.0 mi Calm Calm - N/A   Scattered Clouds
1:54 AM 66.9 °F - 63.0 °F 87% 30.07 in 5.0 mi Calm Calm - N/A   Mostly Cloudy
2:21 AM 68.0 °F - 64.4 °F 88% 30.07 in 4.0 mi SSW 3.5 mph - N/A   Mostly Cloudy
2:41 AM 66.2 °F - 62.6 °F 88% 30.06 in 5.0 mi Calm Calm - N/A   Mostly Cloudy
2:54 AM 68.0 °F - 63.0 °F 84% 30.06 in 5.0 mi Calm Calm - N/A   Mostly Cloudy
3:54 AM 66.9 °F - 63.0 °F 87% 30.06 in 5.0 mi South 3.5 mph - N/A   Scattered Clouds
4:50 AM 66.2 °F - 62.6 °F 88% 30.06 in 4.0 mi Calm Calm - N/A   Scattered Clouds
4:54 AM 66.0 °F - 63.0 °F 90% 30.06 in 4.0 mi Calm Calm - N/A   Scattered Clouds
5:54 AM 66.0 °F - 62.1 °F 87% 30.06 in 3.0 mi South 3.5 mph - N/A   Partly Cloudy
6:40 AM 66.2 °F - 62.6 °F 88% 30.06 in 2.5 mi South 4.6 mph - N/A   Scattered Clouds
6:54 AM 66.0 °F - 62.1 °F 87% 30.07 in 4.0 mi SSW 4.6 mph - N/A   Scattered Clouds
7:54 AM 66.9 °F - 62.1 °F 84% 30.08 in 3.0 mi Calm Calm - N/A   Scattered Clouds
8:54 AM 69.1 °F - 63.0 °F 81% 30.08 in 4.0 mi West 5.8 mph - N/A   Scattered Clouds
9:06 AM 69.8 °F - 62.6 °F 78% 30.08 in 5.0 mi SW 5.8 mph - N/A   Haze
9:54 AM 72.0 °F - 64.0 °F 76% 30.09 in 5.0 mi SW 4.6 mph - N/A   Haze
10:54 AM 75.9 °F - 64.0 °F 67% 30.08 in 6.0 mi Variable 4.6 mph - N/A   Haze
11:17 AM 77.0 °F - 64.4 °F 65% 30.07 in 7.0 mi South 5.8 mph - N/A   Mostly Cloudy
11:48 AM 80.6 °F 81.8 °F 62.6 °F 54% 30.06 in 10.0 mi WSW 8.1 mph - N/A   Mostly Cloudy
11:54 AM 80.1 °F 81.2 °F 62.1 °F 54% 30.06 in 10.0 mi SW 8.1 mph - N/A   Mostly Cloudy
12:54 PM 82.9 °F 84.0 °F 63.0 °F 51% 30.04 in 10.0 mi WSW 6.9 mph - N/A   Scattered Clouds
1:54 PM 84.0 °F 84.5 °F 62.1 °F 47% 30.01 in 10.0 mi SW 8.1 mph - N/A   Partly Cloudy
2:54 PM 84.9 °F 85.4 °F 62.1 °F 46% 30.01 in 10.0 mi WSW 8.1 mph - N/A   Partly Cloudy
3:54 PM 86.0 °F 86.3 °F 62.1 °F 44% 30.00 in 10.0 mi SW 8.1 mph - N/A   Scattered Clouds
4:54 PM 84.9 °F 85.4 °F 62.1 °F 46% 30.00 in 10.0 mi SW 9.2 mph - N/A   Scattered Clouds
5:54 PM 82.9 °F 84.4 °F 64.0 °F 53% 30.00 in 10.0 mi WSW 9.2 mph - N/A   Scattered Clouds
6:54 PM 82.0 °F 83.1 °F 63.0 °F 52% 30.01 in 10.0 mi WSW 8.1 mph - N/A   Scattered Clouds
7:54 PM 78.1 °F - 64.9 °F 64% 30.02 in 10.0 mi SW 8.1 mph - N/A   Clear
8:54 PM 75.9 °F - 64.0 °F 67% 30.04 in 10.0 mi SW 8.1 mph - N/A   Clear
9:54 PM 73.0 °F - 64.0 °F 73% 30.04 in 10.0 mi SW 3.5 mph - N/A   Clear
10:54 PM 71.1 °F - 63.0 °F 75% 30.04 in 10.0 mi WSW 3.5 mph - N/A   Clear
11:54 PM 70.0 °F - 63.0 °F 78% 30.04 in 10.0 mi Calm Calm - N/A   Scattered Clouds